Saint Paul, MN

1:28 PM CST on December 05, 2016 (GMT -0600)
Saint Paul Downtown-Holman

Weather History for KSTP - June, 2013

Change the Weather History Date:

Monday, June 10, 2013

  Actual Average Record
Temperature  
Mean Temperature 66 °F -  
Max Temperature 77 °F 73 °F 93 °F (2000)
Min Temperature 57 °F 54 °F 51 °F (2011)
Cooling Degree Days 1    
Growing Degree Days 16 (Base 50)    
Moisture  
Dew Point 59 °F    
Average Humidity 86    
Maximum Humidity 100    
Minimum Humidity 54    
Precipitation  
Precipitation 0.00 in - - ()
Sea Level Pressure  
Sea Level Pressure 29.83 in    
Wind  
Wind Speed 1 mph (South)    
Max Wind Speed 6 mph    
Max Gust Speed -    
Visibility 4 miles    
Events Fog    
Averages and records for this station are not official NWS values.
T = Trace of Precipitation, MM = Missing Value Source: NWS Daily Summary

Daily Weather History Graph

Daily Weather History Graph

Search for Another Location

Airport or City:

Trip Planner

Search our weather history database for the weather conditions in past years. The results will help you decide how hot, cold, wet, or windy it might be!

Date:

Astronomy

Jun. 10, 2013 Rise Set
Actual Time 5:25 AM CDT 8:58 PM CDT
Civil Twilight 4:48 AM CDT 9:35 PM CDT
Nautical Twilight 3:59 AM CDT 10:24 PM CDT
Astronomical Twilight 2:55 AM CDT 11:28 PM CDT
Moon 7:18 AM CDT (6/10) 10:20 PM CDT (6/10)
Length of Visible Light 16h 46m
Length of Day
15h 32m
Waxing Crescent, 4% of the Moon is Illuminated
Jun 10
Waxing Crescent
Jun 16
First Quarter
Jun 23
Full
Jun 29
Last Quarter
Jul 8
New

Hourly Weather History & Observations

Time (CDT) Temp. Dew Point Humidity Pressure Visibility Wind Dir Wind Speed Gust Speed Precip Events Conditions
12:53 AM 60.1 °F 57.9 °F 93% 29.81 in 4.0 mi Calm Calm - N/A   Clear
1:29 AM 59.0 °F 57.2 °F 94% 29.82 in 1.8 mi Calm Calm - N/A   Clear
1:37 AM 59.0 °F 57.2 °F 94% 29.81 in 1.0 mi Calm Calm - N/A   Mist
1:53 AM 57.9 °F 57.0 °F 97% 29.81 in 0.2 mi Calm Calm - N/A Fog Fog
2:12 AM 57.2 °F 57.2 °F 100% 29.82 in 0.2 mi Calm Calm - N/A Fog Fog
2:27 AM 59.0 °F 57.2 °F 94% 29.82 in 1.8 mi Calm Calm - N/A   Mostly Cloudy
2:30 AM 60.8 °F 57.2 °F 88% 29.82 in 3.0 mi Calm Calm - N/A   Overcast
2:53 AM 60.1 °F 59.0 °F 96% 29.81 in 3.0 mi Calm Calm - N/A   Overcast
3:45 AM 59.0 °F 57.2 °F 94% 29.81 in 2.5 mi Calm Calm - N/A   Overcast
3:53 AM 59.0 °F 57.9 °F 96% 29.81 in 1.2 mi Calm Calm - N/A   Mostly Cloudy
4:04 AM 59.0 °F 57.2 °F 94% 29.82 in 2.0 mi WNW 3.5 mph - N/A   Overcast
4:22 AM 60.8 °F 59.0 °F 94% 29.81 in 3.0 mi Calm Calm - N/A   Overcast
4:53 AM 60.1 °F 59.0 °F 96% 29.80 in 2.5 mi Calm Calm - N/A   Overcast
5:20 AM 60.8 °F 59.0 °F 94% 29.81 in 3.0 mi Calm Calm - N/A   Overcast
5:43 AM 60.8 °F 59.0 °F 94% 29.82 in 1.8 mi Calm Calm - N/A   Overcast
5:53 AM 61.0 °F 59.0 °F 93% 29.81 in 2.5 mi Calm Calm - N/A   Overcast
6:13 AM 60.8 °F 59.0 °F 94% 29.82 in 2.5 mi Calm Calm - N/A   Overcast
6:43 AM 60.8 °F 59.0 °F 94% 29.82 in 2.5 mi SE 3.5 mph - N/A   Overcast
6:53 AM 61.0 °F 60.1 °F 97% 29.82 in 2.5 mi Calm Calm - N/A   Overcast
7:19 AM 62.6 °F 60.8 °F 94% 29.82 in 2.0 mi Calm Calm - N/A   Overcast
7:53 AM 63.0 °F 60.1 °F 90% 29.82 in 2.0 mi Calm Calm - N/A   Overcast
8:00 AM 62.6 °F 60.8 °F 94% 29.82 in 3.0 mi SE 3.5 mph - N/A   Overcast
8:53 AM 63.0 °F 60.1 °F 90% 29.84 in 3.0 mi Calm Calm - N/A   Overcast
9:53 AM 63.0 °F 60.1 °F 90% 29.85 in 3.0 mi SE 4.6 mph - N/A   Overcast
10:53 AM 64.0 °F 61.0 °F 90% 29.85 in 3.0 mi Calm Calm - N/A   Overcast
11:05 AM 64.4 °F 60.8 °F 88% 29.86 in 3.0 mi Calm Calm - N/A   Overcast
11:53 AM 66.0 °F 61.0 °F 84% 29.85 in 3.0 mi Calm Calm - N/A   Haze
12:44 PM 66.2 °F 60.8 °F 83% 29.85 in 4.0 mi Calm Calm - N/A   Haze
12:53 PM 68.0 °F 61.0 °F 78% 29.84 in 5.0 mi Calm Calm - N/A   Haze
1:51 PM 69.8 °F 60.8 °F 73% 29.85 in 6.0 mi Calm Calm - N/A   Haze
1:53 PM 70.0 °F 61.0 °F 73% 29.84 in 6.0 mi Calm Calm - N/A   Haze
2:06 PM 71.6 °F 60.8 °F 69% 29.84 in 7.0 mi Calm Calm - N/A   Overcast
2:53 PM 70.0 °F 60.1 °F 71% 29.83 in 8.0 mi Calm Calm - N/A   Mostly Cloudy
3:53 PM 73.0 °F 61.0 °F 66% 29.83 in 9.0 mi SE 3.5 mph - N/A   Mostly Cloudy
4:53 PM 73.0 °F 61.0 °F 66% 29.82 in 9.0 mi East 3.5 mph - N/A   Overcast
5:53 PM 75.9 °F 57.9 °F 54% 29.82 in 10.0 mi WSW 5.8 mph - N/A   Partly Cloudy
6:53 PM 75.0 °F 59.0 °F 57% 29.82 in 10.0 mi WSW 4.6 mph - N/A   Clear
7:53 PM 73.0 °F 60.1 °F 64% 29.81 in 10.0 mi SW 3.5 mph - N/A   Clear
8:53 PM 71.1 °F 60.1 °F 68% 29.82 in 10.0 mi SW 4.6 mph - N/A   Clear
9:53 PM 68.0 °F 60.1 °F 76% 29.83 in 10.0 mi Calm Calm - N/A   Clear
10:53 PM 64.0 °F 60.1 °F 87% 29.84 in 10.0 mi Calm Calm - N/A   Clear
11:53 PM 61.0 °F 59.0 °F 93% 29.84 in 7.0 mi SE 3.5 mph - N/A   Clear